Showing default

DRAGRACER 2(AUGURY), 46955

Orbit data source: Space-Track

DRAGRACER 2(AUGURY), 46955 is a payload satellite owned by TriSept (US) in SSO that was launched on Fri, 20 Nov 2020 UTC via an ELECTRON launch vehicle from the Rocket Lab Launch Complex (RLLC). Payload-class satellites include a variety of spacecraft equipped with specific instruments for various scientific and technological missions. These include communications satellites like Starlink; space stations such as the ISS; scientific satellites like the Hubble; Earth observation satellites from companies like Planet Labs, Umbra, and HawkEye 360; GPS; miniature CubeSats for education and research; and military/defense satellites.

Loading next visibility...
Identifier
46955, 2020-085AC
Orbit
SSO
Country
Flag of USUS
Related business
Manufacturer
Millenium ES
Mission
Operational Commercial Technology
Bus & Motor
CUBESAT 6U, Unknown motor
Mass
12 kg wet, 12 kg dry
Launch date (UTC)
2020-11-20 (5 years ago)
Launch vehicle
ELECTRON
Launch site
Rocket Lab Launch Complex (RLLC)
Object type
Payload
Rocket body
Debris
Shape & HBR
Box, Unknown HBR
Radar Cross Section
0.080 m², Medium (>0.1 m² and < 1m²)

Expand to show TLE details & history
Last TLE update: 13 hours ago

TLE from 13 hours ago
0 DRAGRACER 2(AUGURY)
1 46955U 20085AC  25258.73687647  .00022003  00000-0  35373-3 0  9995
2 46955  97.5839  70.5705 0006994 193.3322 166.7747 15.52999705269037
Epoch: 2025-09-15T17:41Z
TLE epoch observation values (Epoch: 2025-09-15T17:41:06.127Z)
Latitude
0.00003°
Longitude
170.35772°
Altitude
415.725 km
Speed
7.659 km/s
True Right ascension
04h 42m 16s
True Declination
0° 00' 00"
Sunlit
Object was in daylight at epoch
Visualization orbit readout
Latitude
Unknown
Longitude
Unknown
Altitude
Unknown
Speed
Unknown
Apparent Right ascension
Unknown
Apparent Declination
Unknown
Sunlit
N/A
Visualization observer readout
Local Sidereal Time
23:22:08
Azimuth
Unknown
Elevation
Unknown
Doppler factor
Unknown
Orbital elements
Apogee altitude
409.647 km
Perigee altitude
400.159 km
Semi-major axis
6,783.04 km
Eccentricity
0.0007
Inclination
97.5839°
RAAN
70.5705°
Arg. of periapsis
193.3322°
True anomaly
166.79302°
Mean anomaly
166.7747°
Eccentric anomaly
166.78386°
Mean motion
3.88514 °/min
Orbital period
92.66 mins
BSTAR
0.00035373
Loading maneuver chart data...
Computing Atmospheric mass density...

Documentation

Showing up to 5 results
|